Time,TemperatureF,DewpointF,PressureIn,WindDirection,WindDirectionDegrees,WindSpeedMPH,WindSpeedGustMPH,Humidity,HourlyPrecipIn,Conditions,Clouds,dailyrainin,SoftwareType,DateUTC
2013-09-17 00:01:00,49.2,45.5,30.48,ENE,68,57.0,0.0,87,0.00,,CLR,0.00,VWS V13.01,2013-09-17 04:01:00,
2013-09-17 00:02:00,49.2,45.5,30.48,ENE,68,57.0,0.0,87,0.00,,,0.00,VWS V13.01,2013-09-17 04:02:00,
2013-09-17 00:03:00,49.2,45.5,30.48,ENE,68,57.0,0.0,87,0.00,,,0.00,VWS V13.01,2013-09-17 04:03:00,
2013-09-17 00:09:00,49.1,45.4,30.48,ENE,68,57.0,0.0,87,0.00,,,0.00,VWS V13.01,2013-09-17 04:09:00,
2013-09-17 00:14:00,49.1,45.5,30.48,ENE,68,57.0,0.0,88,0.00,,,0.00,VWS V13.01,2013-09-17 04:14:00,
2013-09-17 00:19:00,49.1,45.5,30.48,ENE,68,57.0,0.0,88,0.00,,,0.00,VWS V13.01,2013-09-17 04:19:00,
2013-09-17 00:24:00,48.9,45.5,30.48,ENE,68,57.0,0.0,88,0.00,,,0.00,VWS V13.01,2013-09-17 04:24:00,
2013-09-17 00:29:00,48.9,45.5,30.48,ENE,68,57.0,0.0,88,0.00,,,0.00,VWS V13.01,2013-09-17 04:29:00,
2013-09-17 00:34:00,48.9,45.5,30.48,ENE,68,57.0,0.0,88,0.00,,,0.00,VWS V13.01,2013-09-17 04:34:00,
2013-09-17 00:39:00,48.9,45.3,30.48,ENE,68,57.0,0.0,88,0.00,,,0.00,VWS V13.01,2013-09-17 04:39:00,
2013-09-17 00:44:00,48.9,45.3,30.48,ENE,68,57.0,0.0,88,0.00,,,0.00,VWS V13.01,2013-09-17 04:44:00,
2013-09-17 00:49:00,48.7,45.3,30.48,ENE,68,57.0,0.0,88,0.00,,,0.00,VWS V13.01,2013-09-17 04:49:00,
2013-09-17 00:54:00,48.7,45.3,30.48,ENE,68,57.0,0.0,88,0.00,,,0.00,VWS V13.01,2013-09-17 04:54:00,
2013-09-17 00:59:00,48.7,45.1,30.48,ENE,68,57.0,0.0,88,0.00,,,0.00,VWS V13.01,2013-09-17 04:59:00,
2013-09-17 01:04:00,48.7,45.1,30.48,ENE,68,57.0,0.0,88,0.00,,,0.00,VWS V13.01,2013-09-17 05:04:00,
2013-09-17 01:09:00,48.5,45.1,30.48,ENE,68,57.0,0.0,88,0.00,,,0.00,VWS V13.01,2013-09-17 05:09:00,
2013-09-17 01:14:00,48.5,45.1,30.48,ENE,68,57.0,0.0,88,0.00,,,0.00,VWS V13.01,2013-09-17 05:14:00,
2013-09-17 01:19:00,48.5,45.1,30.48,ENE,68,57.0,0.0,88,0.00,,,0.00,VWS V13.01,2013-09-17 05:19:00,
2013-09-17 01:24:00,48.3,45.1,30.48,ENE,68,57.0,0.0,88,0.00,,,0.00,VWS V13.01,2013-09-17 05:24:00,
2013-09-17 01:29:00,48.3,44.9,30.48,ENE,68,57.0,0.0,88,0.00,,,0.00,VWS V13.01,2013-09-17 05:29:00,
2013-09-17 01:34:00,48.3,44.9,30.48,North,0,57.0,0.0,88,0.00,,,0.00,VWS V13.01,2013-09-17 05:34:00,
2013-09-17 01:39:00,48.3,44.9,30.48,ENE,68,57.0,0.0,88,0.00,,,0.00,VWS V13.01,2013-09-17 05:39:00,
2013-09-17 01:44:00,48.3,45.2,30.48,ENE,68,57.0,0.0,88,0.00,,,0.00,VWS V13.01,2013-09-17 05:44:00,
2013-09-17 01:49:00,48.3,45.2,30.48,ENE,68,57.0,0.0,89,0.00,,,0.00,VWS V13.01,2013-09-17 05:49:00,
2013-09-17 01:54:00,48.3,45.2,30.48,ENE,68,57.0,0.0,89,0.00,,,0.00,VWS V13.01,2013-09-17 05:54:00,
2013-09-17 01:59:00,48.3,45.2,30.48,ENE,68,57.0,0.0,89,0.00,,,0.00,VWS V13.01,2013-09-17 05:59:00,
2013-09-17 02:04:00,48.3,45.1,30.48,ENE,68,57.0,0.0,89,0.00,,,0.00,VWS V13.01,2013-09-17 06:04:00,
2013-09-17 02:09:00,48.2,45.1,30.48,ENE,68,57.0,0.0,89,0.00,,,0.00,VWS V13.01,2013-09-17 06:09:00,
2013-09-17 02:14:00,48.2,44.9,30.48,ENE,68,57.0,0.0,89,0.00,,,0.00,VWS V13.01,2013-09-17 06:14:00,
2013-09-17 02:19:00,48.0,44.9,30.48,ENE,68,57.0,0.0,89,0.00,,,0.00,VWS V13.01,2013-09-17 06:19:00,
2013-09-17 02:24:00,48.0,44.9,30.48,ENE,68,57.0,0.0,89,0.00,,,0.00,VWS V13.01,2013-09-17 06:24:00,
2013-09-17 02:29:00,48.0,44.9,30.48,ENE,68,57.0,0.0,89,0.00,,,0.00,VWS V13.01,2013-09-17 06:29:00,
2013-09-17 02:34:00,48.0,44.9,30.48,ENE,68,57.0,0.0,89,0.00,,,0.00,VWS V13.01,2013-09-17 06:34:00,
2013-09-17 02:39:00,48.0,44.7,30.48,ENE,68,57.0,0.0,89,0.00,,,0.00,VWS V13.01,2013-09-17 06:39:00,
2013-09-17 02:44:00,47.8,44.7,30.48,ENE,68,57.0,0.0,89,0.00,,,0.00,VWS V13.01,2013-09-17 06:44:00,
2013-09-17 02:49:00,47.8,44.7,30.48,ENE,68,57.0,0.0,89,0.00,,,0.00,VWS V13.01,2013-09-17 06:49:00,
2013-09-17 02:54:00,47.8,44.3,30.48,ENE,68,57.0,0.0,89,0.00,,,0.00,VWS V13.01,2013-09-17 06:54:00,
2013-09-17 02:59:00,47.4,44.3,30.48,ENE,68,57.0,0.0,89,0.00,,,0.00,VWS V13.01,2013-09-17 06:59:00,
2013-09-17 03:04:00,47.4,44.3,30.48,ENE,68,57.0,0.0,89,0.00,,,0.00,VWS V13.01,2013-09-17 07:04:00,
2013-09-17 03:09:00,47.4,44.2,30.48,North,0,57.0,0.0,89,0.00,,,0.00,VWS V13.01,2013-09-17 07:09:00,
2013-09-17 03:14:00,47.3,44.3,30.48,ESE,112,57.0,0.0,89,0.00,,,0.00,VWS V13.01,2013-09-17 07:14:00,
2013-09-17 03:19:00,47.3,44.2,30.48,ESE,112,57.0,0.0,89,0.00,,,0.00,VWS V13.01,2013-09-17 07:19:00,
2013-09-17 03:24:00,47.1,44.2,30.48,ESE,112,57.0,0.0,89,0.00,,,0.00,VWS V13.01,2013-09-17 07:24:00,
2013-09-17 03:29:00,47.1,44.0,30.48,ESE,112,57.0,0.0,89,0.00,,,0.00,VWS V13.01,2013-09-17 07:29:00,
2013-09-17 03:34:00,47.1,44.0,30.48,ESE,112,57.0,0.0,89,0.00,,,0.00,VWS V13.01,2013-09-17 07:34:00,
2013-09-17 03:39:00,47.1,44.0,30.48,ESE,112,57.0,0.0,89,0.00,,,0.00,VWS V13.01,2013-09-17 07:39:00,
2013-09-17 03:44:00,47.1,44.0,30.48,ESE,112,57.0,0.0,89,0.00,,,0.00,VWS V13.01,2013-09-17 07:44:00,
2013-09-17 03:49:00,47.3,44.0,30.48,ESE,112,57.0,0.0,89,0.00,,,0.00,VWS V13.01,2013-09-17 07:49:00,
2013-09-17 03:55:00,47.4,44.2,30.48,ESE,112,57.0,0.0,89,0.00,,,0.00,VWS V13.01,2013-09-17 07:55:00,
2013-09-17 04:00:00,47.4,44.2,30.48,ESE,112,57.0,0.0,89,0.00,,,0.00,VWS V13.01,2013-09-17 08:00:00,
2013-09-17 04:05:00,47.3,44.0,30.48,ESE,112,57.0,0.0,89,0.00,,,0.00,VWS V13.01,2013-09-17 08:05:00,
2013-09-17 04:10:00,47.1,44.0,30.48,ESE,112,57.0,0.0,89,0.00,,,0.00,VWS V13.01,2013-09-17 08:10:00,
2013-09-17 04:15:00,46.9,43.8,30.48,ESE,112,57.0,0.0,89,0.00,,,0.00,VWS V13.01,2013-09-17 08:15:00,
2013-09-17 04:20:00,46.9,43.8,30.48,East,90,57.0,0.0,89,0.00,,,0.00,VWS V13.01,2013-09-17 08:20:00,
2013-09-17 04:25:00,46.9,43.6,30.48,East,90,57.0,0.0,89,0.00,,,0.00,VWS V13.01,2013-09-17 08:25:00,
2013-09-17 04:30:00,46.7,43.6,30.48,East,90,57.0,0.0,89,0.00,,,0.00,VWS V13.01,2013-09-17 08:30:00,
2013-09-17 04:35:00,46.7,43.4,30.48,East,90,57.0,0.0,89,0.00,,,0.00,VWS V13.01,2013-09-17 08:35:00,
2013-09-17 04:40:00,46.5,43.4,30.48,East,90,57.0,0.0,89,0.00,,,0.00,VWS V13.01,2013-09-17 08:40:00,
2013-09-17 04:45:00,46.5,43.4,30.48,East,90,57.0,0.0,89,0.00,,,0.00,VWS V13.01,2013-09-17 08:45:00,
2013-09-17 04:50:00,46.5,43.4,30.48,East,90,57.0,0.0,89,0.00,,,0.00,VWS V13.01,2013-09-17 08:50:00,
2013-09-17 04:55:00,46.5,43.3,30.48,East,90,57.0,0.0,89,0.00,,,0.00,VWS V13.01,2013-09-17 08:55:00,
2013-09-17 05:00:00,46.4,43.3,30.48,East,90,57.0,0.0,89,0.00,,,0.00,VWS V13.01,2013-09-17 09:00:00,
2013-09-17 05:05:00,46.4,43.4,30.49,NE,45,57.0,0.0,89,0.00,,,0.00,VWS V13.01,2013-09-17 09:05:00,
2013-09-17 05:10:00,46.5,43.4,30.49,NE,45,57.0,0.0,89,0.00,,,0.00,VWS V13.01,2013-09-17 09:10:00,
2013-09-17 05:15:00,46.5,43.4,30.48,NE,45,57.0,0.0,89,0.00,,,0.00,VWS V13.01,2013-09-17 09:15:00,
2013-09-17 05:20:00,46.5,43.4,30.49,ENE,68,57.0,0.0,89,0.00,,,0.00,VWS V13.01,2013-09-17 09:20:00,
2013-09-17 05:25:00,46.5,43.4,30.49,ENE,68,57.0,0.0,89,0.00,,,0.00,VWS V13.01,2013-09-17 09:25:00,
2013-09-17 05:30:00,46.5,43.6,30.49,ENE,68,57.0,0.0,89,0.00,,,0.00,VWS V13.01,2013-09-17 09:30:00,
2013-09-17 05:35:00,46.7,43.6,30.49,ENE,68,57.0,0.0,89,0.00,,,0.00,VWS V13.01,2013-09-17 09:35:00,
2013-09-17 05:41:00,46.7,43.6,30.49,ENE,68,57.0,0.0,89,0.00,,,0.00,VWS V13.01,2013-09-17 09:41:00,
2013-09-17 05:46:00,46.5,43.4,30.49,ENE,68,57.0,0.0,89,0.00,,,0.00,VWS V13.01,2013-09-17 09:46:00,
2013-09-17 05:51:00,46.5,43.4,30.49,ENE,68,57.0,0.0,89,0.00,,,0.00,VWS V13.01,2013-09-17 09:51:00,
2013-09-17 05:56:00,46.5,43.4,30.49,ENE,68,57.0,0.0,89,0.00,,,0.00,VWS V13.01,2013-09-17 09:56:00,
2013-09-17 06:01:00,46.2,43.4,30.50,ENE,68,57.0,0.0,89,0.00,,,0.00,VWS V13.01,2013-09-17 10:01:00,
2013-09-17 06:06:00,46.2,43.4,30.49,ENE,68,57.0,0.0,90,0.00,,,0.00,VWS V13.01,2013-09-17 10:06:00,
2013-09-17 06:11:00,46.0,43.0,30.50,ENE,68,57.0,0.0,89,0.00,,,0.00,VWS V13.01,2013-09-17 10:11:00,
2013-09-17 06:16:00,46.0,43.0,30.50,ENE,68,57.0,0.0,89,0.00,,,0.00,VWS V13.01,2013-09-17 10:16:00,
2013-09-17 06:21:00,45.6,42.5,30.51,ENE,68,57.0,0.0,89,0.00,,,0.00,VWS V13.01,2013-09-17 10:21:00,
2013-09-17 06:26:00,45.5,42.5,30.50,ENE,68,57.0,0.0,89,0.00,,,0.00,VWS V13.01,2013-09-17 10:26:00,
2013-09-17 06:31:00,45.5,42.3,30.51,ENE,68,57.0,0.0,89,0.00,,,0.00,VWS V13.01,2013-09-17 10:31:00,
2013-09-17 06:36:00,45.3,42.5,30.51,ENE,68,57.0,0.0,90,0.00,,,0.00,VWS V13.01,2013-09-17 10:36:00,
2013-09-17 06:41:00,45.3,42.5,30.50,ENE,68,57.0,0.0,89,0.00,,,0.00,VWS V13.01,2013-09-17 10:41:00,
2013-09-17 06:46:00,45.1,42.3,30.51,ENE,68,57.0,0.0,90,0.00,,,0.00,VWS V13.01,2013-09-17 10:46:00,
2013-09-17 06:51:00,45.1,42.3,30.51,ENE,68,57.0,0.0,90,0.00,,,0.00,VWS V13.01,2013-09-17 10:51:00,
2013-09-17 06:56:00,45.1,42.3,30.51,ENE,68,57.0,0.0,90,0.00,,,0.00,VWS V13.01,2013-09-17 10:56:00,
2013-09-17 07:01:00,44.9,42.2,30.51,ENE,68,57.0,0.0,90,0.00,,,0.00,VWS V13.01,2013-09-17 11:01:00,
2013-09-17 07:06:00,44.7,42.0,30.52,ENE,68,57.0,0.0,90,0.00,,,0.00,VWS V13.01,2013-09-17 11:06:00,
2013-09-17 07:11:00,44.6,41.7,30.52,ENE,68,57.0,0.0,90,0.00,,,0.00,VWS V13.01,2013-09-17 11:11:00,
2013-09-17 07:16:00,44.4,41.7,30.52,ENE,68,57.0,0.0,90,0.00,,,0.00,VWS V13.01,2013-09-17 11:16:00,
2013-09-17 07:21:00,44.4,41.5,30.53,ENE,68,57.0,0.0,90,0.00,,,0.00,VWS V13.01,2013-09-17 11:21:00,
2013-09-17 07:26:00,44.2,41.5,30.54,ENE,68,57.0,0.0,90,0.00,,,0.00,VWS V13.01,2013-09-17 11:26:00,
2013-09-17 07:31:00,44.2,41.5,30.54,ENE,68,57.0,0.0,90,0.00,,,0.00,VWS V13.01,2013-09-17 11:31:00,
2013-09-17 07:36:00,44.2,41.5,30.54,ENE,68,57.0,0.0,90,0.00,,,0.00,VWS V13.01,2013-09-17 11:36:00,
2013-09-17 07:41:00,44.2,41.5,30.54,ENE,68,57.0,0.0,90,0.00,,,0.00,VWS V13.01,2013-09-17 11:41:00,
2013-09-17 07:46:00,44.4,41.5,30.54,ENE,68,57.0,0.0,90,0.00,,,0.00,VWS V13.01,2013-09-17 11:46:00,
2013-09-17 07:51:00,44.4,41.7,30.54,ENE,68,57.0,0.0,90,0.00,,,0.00,VWS V13.01,2013-09-17 11:51:00,
2013-09-17 07:56:00,44.4,41.7,30.54,ENE,68,57.0,0.0,90,0.00,,,0.00,VWS V13.01,2013-09-17 11:56:00,
2013-09-17 08:01:00,44.4,41.7,30.54,ENE,68,57.0,0.0,90,0.00,,,0.00,VWS V13.01,2013-09-17 12:01:00,
2013-09-17 08:06:00,44.4,41.7,30.54,ENE,68,57.0,0.0,90,0.00,,,0.00,VWS V13.01,2013-09-17 12:06:00,
2013-09-17 08:11:00,44.6,41.8,30.54,ENE,68,57.0,0.0,90,0.00,,,0.00,VWS V13.01,2013-09-17 12:11:00,
2013-09-17 08:16:00,44.7,42.2,30.54,ENE,68,57.0,0.0,90,0.00,,,0.00,VWS V13.01,2013-09-17 12:16:00,
2013-09-17 08:21:00,45.1,42.3,30.54,ENE,68,57.0,0.0,90,0.00,,,0.00,VWS V13.01,2013-09-17 12:21:00,
2013-09-17 08:26:00,45.1,42.5,30.54,ENE,68,57.0,0.0,90,0.00,,,0.00,VWS V13.01,2013-09-17 12:26:00,
2013-09-17 08:32:00,45.5,42.8,30.54,ENE,68,57.0,0.0,90,0.00,,,0.00,VWS V13.01,2013-09-17 12:32:00,
2013-09-17 08:37:00,45.8,43.2,30.54,ENE,68,57.0,0.0,90,0.00,,,0.00,VWS V13.01,2013-09-17 12:37:00,
2013-09-17 08:42:00,46.2,43.4,30.54,ENE,68,57.0,0.0,90,0.00,,,0.00,VWS V13.01,2013-09-17 12:42:00,
2013-09-17 08:47:00,46.5,43.9,30.54,NNE,22,57.0,0.0,90,0.00,,,0.00,VWS V13.01,2013-09-17 12:47:00,
2013-09-17 08:52:00,46.9,44.3,30.54,NNW,338,57.0,0.0,90,0.00,,,0.00,VWS V13.01,2013-09-17 12:52:00,
2013-09-17 08:57:00,47.3,44.6,30.54,North,0,57.0,0.0,90,0.00,,,0.00,VWS V13.01,2013-09-17 12:57:00,
2013-09-17 09:02:00,47.8,45.2,30.55,North,0,57.0,0.0,90,0.00,,,0.00,VWS V13.01,2013-09-17 13:02:00,
2013-09-17 09:07:00,48.0,45.8,30.55,North,0,57.0,0.0,90,0.00,,,0.00,VWS V13.01,2013-09-17 13:07:00,
2013-09-17 09:12:00,48.7,46.1,30.55,NW,315,57.0,0.0,90,0.00,,,0.00,VWS V13.01,2013-09-17 13:12:00,
2013-09-17 09:17:00,49.2,46.8,30.55,East,90,0.8,0.0,90,0.00,,,0.00,VWS V13.01,2013-09-17 13:17:00,
2013-09-17 09:22:00,49.8,47.3,30.55,ESE,112,0.8,0.0,90,0.00,,,0.00,VWS V13.01,2013-09-17 13:22:00,
2013-09-17 09:27:00,50.5,48.4,30.55,ENE,68,2.0,0.0,90,0.00,,,0.00,VWS V13.01,2013-09-17 13:27:00,
2013-09-17 09:32:00,51.2,49.1,30.55,SE,135,2.0,0.0,91,0.00,,,0.00,VWS V13.01,2013-09-17 13:32:00,
2013-09-17 09:37:00,51.6,49.5,30.55,NE,45,2.0,0.0,91,0.00,,,0.00,VWS V13.01,2013-09-17 13:37:00,
2013-09-17 09:42:00,52.3,49.8,30.56,ESE,112,2.0,0.0,90,0.00,,,0.00,VWS V13.01,2013-09-17 13:42:00,
2013-09-17 09:47:00,52.8,50.2,30.56,SE,135,2.0,0.0,90,0.00,,,0.00,VWS V13.01,2013-09-17 13:47:00,
2013-09-17 09:52:00,53.2,50.5,30.56,SE,135,2.0,0.0,90,0.00,,,0.00,VWS V13.01,2013-09-17 13:52:00,
2013-09-17 09:57:00,53.4,50.8,30.56,SSE,158,2.0,0.0,90,0.00,,,0.00,VWS V13.01,2013-09-17 13:57:00,
2013-09-17 10:02:00,54.3,51.0,30.56,East,90,2.0,0.0,90,0.00,,,0.00,VWS V13.01,2013-09-17 14:02:00,
2013-09-17 10:07:00,54.5,51.9,30.56,SSE,158,2.0,0.0,90,0.00,,,0.00,VWS V13.01,2013-09-17 14:07:00,
2013-09-17 10:12:00,55.0,52.1,30.56,ENE,68,1.5,0.0,90,0.00,,,0.00,VWS V13.01,2013-09-17 14:12:00,
2013-09-17 10:17:00,55.2,52.6,30.55,ENE,68,5.3,0.0,90,0.00,,,0.00,VWS V13.01,2013-09-17 14:17:00,
2013-09-17 10:22:00,55.9,52.5,30.55,ESE,112,5.3,0.0,89,0.00,,,0.00,VWS V13.01,2013-09-17 14:22:00,
2013-09-17 10:27:00,56.1,52.9,30.56,SE,135,0.2,0.0,89,0.00,,,0.00,VWS V13.01,2013-09-17 14:27:00,
2013-09-17 10:32:00,56.4,53.5,30.55,SE,135,0.8,0.0,88,0.00,,,0.00,VWS V13.01,2013-09-17 14:32:00,
2013-09-17 10:37:00,57.0,53.5,30.56,North,0,0.8,0.0,88,0.00,,,0.00,VWS V13.01,2013-09-17 14:37:00,
2013-09-17 10:42:00,57.3,53.9,30.56,ESE,112,0.8,0.0,87,0.00,,SCT003,0.00,VWS V13.01,2013-09-17 14:42:00,
2013-09-17 10:47:00,57.9,53.9,30.56,East,90,2.0,0.0,87,0.00,,SCT003,0.00,VWS V13.01,2013-09-17 14:47:00,
2013-09-17 10:52:00,58.8,54.8,30.56,ESE,112,2.0,0.0,86,0.00,,SCT003,0.00,VWS V13.01,2013-09-17 14:52:00,
2013-09-17 10:57:00,59.3,55.4,30.56,NE,45,3.1,0.0,86,0.00,,SCT003,0.00,VWS V13.01,2013-09-17 14:57:00,
2013-09-17 11:02:00,60.0,55.0,30.56,West,270,4.2,0.0,84,0.00,,SCT015,0.00,VWS V13.01,2013-09-17 15:02:00,
2013-09-17 11:07:00,60.4,55.1,30.56,SSW,202,5.5,0.0,83,0.00,,SCT015,0.00,VWS V13.01,2013-09-17 15:07:00,
2013-09-17 11:12:00,60.9,55.8,30.56,ESE,112,0.4,0.0,82,0.00,,SCT015,0.00,VWS V13.01,2013-09-17 15:12:00,
2013-09-17 11:17:00,61.5,56.1,30.56,SE,135,0.8,0.0,82,0.00,,SCT015,0.00,VWS V13.01,2013-09-17 15:17:00,
2013-09-17 11:22:00,62.2,56.0,30.56,SSE,158,1.1,0.0,79,0.00,,SCT015,0.00,VWS V13.01,2013-09-17 15:22:00,
2013-09-17 11:27:00,62.2,55.3,30.56,East,90,5.5,0.0,79,0.00,,SCT015,0.00,VWS V13.01,2013-09-17 15:27:00,
2013-09-17 11:32:00,61.8,54.5,30.56,West,270,3.3,0.0,77,0.00,,SCT015,0.00,VWS V13.01,2013-09-17 15:32:00,
2013-09-17 11:37:00,61.7,54.4,30.56,SSE,158,4.2,0.0,77,0.00,,SCT015,0.00,VWS V13.01,2013-09-17 15:37:00,
2013-09-17 11:42:00,62.2,54.7,30.56,South,180,4.2,0.0,77,0.00,,BKN020,0.00,VWS V13.01,2013-09-17 15:42:00,
2013-09-17 11:47:00,62.4,54.5,30.56,SE,135,4.2,0.0,77,0.00,,BKN020,0.00,VWS V13.01,2013-09-17 15:47:00,
2013-09-17 11:52:00,62.9,55.4,30.56,South,180,0.2,0.0,76,0.00,,BKN020,0.00,VWS V13.01,2013-09-17 15:52:00,
2013-09-17 11:57:00,62.9,54.9,30.56,SSE,158,0.2,0.0,75,0.00,,BKN020,0.00,VWS V13.01,2013-09-17 15:57:00,
2013-09-17 12:02:00,62.9,54.0,30.56,SE,135,1.5,0.0,75,0.00,,OVC020,0.00,VWS V13.01,2013-09-17 16:02:00,
2013-09-17 12:07:00,62.7,54.9,30.56,SSW,202,2.4,0.0,74,0.00,,OVC020,0.00,VWS V13.01,2013-09-17 16:07:00,
2013-09-17 12:13:00,63.1,55.1,30.56,South,180,2.2,0.0,75,0.00,,OVC020,0.00,VWS V13.01,2013-09-17 16:13:00,
2013-09-17 12:18:00,63.3,54.8,30.56,ESE,112,1.1,0.0,72,0.00,,OVC020,0.00,VWS V13.01,2013-09-17 16:18:00,
2013-09-17 12:23:00,63.1,54.3,30.55,SSW,202,4.2,0.0,72,0.00,,OVC020,0.00,VWS V13.01,2013-09-17 16:23:00,
2013-09-17 12:28:00,63.3,54.3,30.55,SW,225,1.5,0.0,73,0.00,,OVC020,0.00,VWS V13.01,2013-09-17 16:28:00,
2013-09-17 12:33:00,63.5,54.8,30.55,NE,45,4.2,0.0,72,0.00,,OVC020,0.00,VWS V13.01,2013-09-17 16:33:00,
2013-09-17 12:38:00,63.5,54.8,30.55,SE,135,3.3,0.0,72,0.00,,OVC020,0.00,VWS V13.01,2013-09-17 16:38:00,
2013-09-17 12:43:00,64.2,54.8,30.55,WSW,248,57.0,0.0,73,0.00,,OVC025,0.00,VWS V13.01,2013-09-17 16:43:00,
2013-09-17 12:48:00,64.2,54.6,30.55,SE,135,2.0,0.0,71,0.00,,OVC025,0.00,VWS V13.01,2013-09-17 16:48:00,
2013-09-17 12:53:00,64.0,54.0,30.55,WSW,248,1.7,0.0,71,0.00,,OVC025,0.00,VWS V13.01,2013-09-17 16:53:00,
2013-09-17 12:58:00,63.6,54.2,30.55,SE,135,1.1,0.0,70,0.00,,OVC025,0.00,VWS V13.01,2013-09-17 16:58:00,
2013-09-17 13:03:00,64.0,54.2,30.55,ENE,68,1.3,0.0,70,0.00,,BKN025,0.00,VWS V13.01,2013-09-17 17:03:00,
2013-09-17 13:08:00,64.5,54.7,30.54,SE,135,0.8,0.0,71,0.00,,BKN025,0.00,VWS V13.01,2013-09-17 17:08:00,
2013-09-17 13:13:00,64.9,54.7,30.54,SE,135,3.5,0.0,70,0.00,,BKN025,0.00,VWS V13.01,2013-09-17 17:13:00,
2013-09-17 13:18:00,65.1,54.3,30.54,SE,135,3.5,0.0,69,0.00,,BKN025,0.00,VWS V13.01,2013-09-17 17:18:00,
2013-09-17 13:23:00,65.1,53.7,30.54,West,270,3.3,0.0,69,0.00,,BKN025,0.00,VWS V13.01,2013-09-17 17:23:00,
2013-09-17 13:28:00,64.7,55.1,30.54,SSW,202,5.5,0.0,69,0.00,,BKN025,0.00,VWS V13.01,2013-09-17 17:28:00,
2013-09-17 13:33:00,65.4,55.0,30.54,ENE,68,1.7,0.0,69,0.00,,BKN025,0.00,VWS V13.01,2013-09-17 17:33:00,
2013-09-17 13:38:00,65.4,55.2,30.54,South,180,3.3,0.0,69,0.00,,BKN025,0.00,VWS V13.01,2013-09-17 17:38:00,
2013-09-17 13:43:00,66.0,55.2,30.53,SW,225,3.8,0.0,67,0.00,,OVC027,0.00,VWS V13.01,2013-09-17 17:43:00,
2013-09-17 13:48:00,65.8,54.2,30.53,ENE,68,1.3,0.0,66,0.00,,OVC027,0.00,VWS V13.01,2013-09-17 17:48:00,
2013-09-17 13:53:00,65.8,54.4,30.53,ENE,68,2.0,0.0,66,0.00,,OVC027,0.00,VWS V13.01,2013-09-17 17:53:00,
2013-09-17 13:58:00,65.8,54.5,30.52,ENE,68,1.7,0.0,67,0.00,,OVC027,0.00,VWS V13.01,2013-09-17 17:58:00,
2013-09-17 14:03:00,65.8,54.2,30.52,ENE,68,1.7,0.0,67,0.00,,BKN029,0.00,VWS V13.01,2013-09-17 18:03:00,
2013-09-17 14:08:00,65.8,54.1,30.52,South,180,57.0,0.0,67,0.00,,BKN029,0.00,VWS V13.01,2013-09-17 18:08:00,
2013-09-17 14:13:00,65.3,53.5,30.52,ESE,112,57.0,0.0,67,0.00,,BKN029,0.00,VWS V13.01,2013-09-17 18:13:00,
2013-09-17 14:18:00,65.1,54.1,30.52,SE,135,57.0,0.0,67,0.00,,BKN029,0.00,VWS V13.01,2013-09-17 18:18:00,
2013-09-17 14:23:00,65.3,54.5,30.52,East,90,3.5,0.0,67,0.00,,BKN029,0.00,VWS V13.01,2013-09-17 18:23:00,
2013-09-17 14:28:00,66.0,54.6,30.51,SE,135,2.6,0.0,67,0.00,,BKN029,0.00,VWS V13.01,2013-09-17 18:28:00,
2013-09-17 14:33:00,66.5,54.6,30.51,South,180,1.7,0.0,65,0.00,,BKN029,0.00,VWS V13.01,2013-09-17 18:33:00,
2013-09-17 14:38:00,66.5,54.2,30.51,SE,135,2.9,0.0,65,0.00,,BKN029,0.00,VWS V13.01,2013-09-17 18:38:00,
2013-09-17 14:43:00,66.5,54.0,30.51,North,0,57.0,0.0,65,0.00,,SCT029,0.00,VWS V13.01,2013-09-17 18:43:00,
2013-09-17 14:48:00,66.5,54.0,30.51,SE,135,57.0,0.0,65,0.00,,SCT029,0.00,VWS V13.01,2013-09-17 18:48:00,
2013-09-17 14:53:00,66.3,54.0,30.51,SE,135,57.0,0.0,65,0.00,,SCT029,0.00,VWS V13.01,2013-09-17 18:53:00,
2013-09-17 14:58:00,66.5,54.2,30.51,East,90,3.5,0.0,65,0.00,,SCT029,0.00,VWS V13.01,2013-09-17 18:58:00,
2013-09-17 15:03:00,66.9,54.6,30.51,ESE,112,57.0,0.0,64,0.00,,SCT035,0.00,VWS V13.01,2013-09-17 19:03:00,
2013-09-17 15:08:00,67.4,54.8,30.51,SE,135,3.5,0.0,64,0.00,,SCT035,0.00,VWS V13.01,2013-09-17 19:08:00,
2013-09-17 15:13:00,67.8,54.3,30.50,South,180,3.1,0.0,63,0.00,,SCT035,0.00,VWS V13.01,2013-09-17 19:13:00,
2013-09-17 15:18:00,67.8,53.7,30.50,SW,225,4.2,0.0,61,0.00,,SCT035,0.00,VWS V13.01,2013-09-17 19:18:00,
2013-09-17 15:23:00,67.2,53.3,30.50,SE,135,1.1,0.0,60,0.00,,SCT035,0.00,VWS V13.01,2013-09-17 19:23:00,
2013-09-17 15:28:00,67.2,53.3,30.50,South,180,6.2,0.0,61,0.00,,SCT035,0.00,VWS V13.01,2013-09-17 19:28:00,
2013-09-17 15:33:00,67.2,53.3,30.50,North,0,57.0,0.0,61,0.00,,SCT035,0.00,VWS V13.01,2013-09-17 19:33:00,
2013-09-17 15:38:00,67.2,53.7,30.50,SSW,202,0.4,0.0,61,0.00,,SCT035,0.00,VWS V13.01,2013-09-17 19:38:00,
2013-09-17 15:43:00,67.6,53.7,30.50,NE,45,1.7,0.0,61,0.00,,BKN037,0.00,VWS V13.01,2013-09-17 19:43:00,
2013-09-17 15:48:00,67.8,53.9,30.50,ESE,112,57.0,0.0,60,0.00,,BKN037,0.00,VWS V13.01,2013-09-17 19:48:00,
2013-09-17 15:53:00,67.8,53.4,30.50,ESE,112,57.0,0.0,60,0.00,,BKN037,0.00,VWS V13.01,2013-09-17 19:53:00,
2013-09-17 15:58:00,67.8,53.2,30.50,North,0,1.7,0.0,60,0.00,,BKN037,0.00,VWS V13.01,2013-09-17 19:58:00,
2013-09-17 16:03:00,67.8,53.9,30.50,NE,45,6.9,0.0,60,0.00,,SCT037,0.00,VWS V13.01,2013-09-17 20:03:00,
2013-09-17 16:08:00,67.2,53.4,30.49,ENE,68,3.8,0.0,60,0.00,,SCT037,0.00,VWS V13.01,2013-09-17 20:08:00,
2013-09-17 16:13:00,66.7,53.0,30.49,North,0,57.0,0.0,61,0.00,,SCT037,0.00,VWS V13.01,2013-09-17 20:13:00,
2013-09-17 16:18:00,66.3,52.7,30.49,ENE,68,57.0,0.0,61,0.00,,SCT037,0.00,VWS V13.01,2013-09-17 20:18:00,
2013-09-17 16:23:00,66.3,52.2,30.49,ESE,112,57.0,0.0,61,0.00,,SCT037,0.00,VWS V13.01,2013-09-17 20:23:00,
2013-09-17 16:28:00,66.0,51.8,30.49,SE,135,2.2,0.0,61,0.00,,SCT037,0.00,VWS V13.01,2013-09-17 20:28:00,
2013-09-17 16:33:00,65.1,52.1,30.49,ESE,112,57.0,0.0,62,0.00,,SCT037,0.00,VWS V13.01,2013-09-17 20:33:00,
2013-09-17 16:38:00,65.1,52.2,30.48,ESE,112,1.3,0.0,62,0.00,,SCT037,0.00,VWS V13.01,2013-09-17 20:38:00,
2013-09-17 16:44:00,65.1,52.0,30.48,SSE,158,1.3,0.0,63,0.00,,BKN039,0.00,VWS V13.01,2013-09-17 20:44:00,
2013-09-17 16:49:00,65.8,52.0,30.48,SW,225,1.3,0.0,62,0.00,,BKN039,0.00,VWS V13.01,2013-09-17 20:49:00,
2013-09-17 16:54:00,65.8,52.2,30.48,North,0,1.5,0.0,62,0.00,,BKN039,0.00,VWS V13.01,2013-09-17 20:54:00,
2013-09-17 16:59:00,66.0,52.2,30.48,SW,225,1.5,0.0,61,0.00,,BKN039,0.00,VWS V13.01,2013-09-17 20:59:00,
2013-09-17 17:04:00,66.0,52.2,30.48,SE,135,2.2,0.0,61,0.00,,SCT041,0.00,VWS V13.01,2013-09-17 21:04:00,
2013-09-17 17:09:00,66.0,51.7,30.48,SSE,158,2.0,0.0,61,0.00,,SCT041,0.00,VWS V13.01,2013-09-17 21:09:00,
2013-09-17 17:14:00,66.0,52.4,30.48,SSW,202,2.0,0.0,60,0.00,,SCT041,0.00,VWS V13.01,2013-09-17 21:14:00,
2013-09-17 17:19:00,66.2,52.5,30.48,WSW,248,2.0,0.0,61,0.00,,SCT041,0.00,VWS V13.01,2013-09-17 21:19:00,
2013-09-17 17:24:00,66.3,52.0,30.48,ESE,112,2.6,0.0,61,0.00,,SCT041,0.00,VWS V13.01,2013-09-17 21:24:00,
2013-09-17 17:29:00,66.5,52.2,30.48,SSE,158,2.6,0.0,60,0.00,,SCT041,0.00,VWS V13.01,2013-09-17 21:29:00,
2013-09-17 17:34:00,66.5,52.2,30.48,SE,135,6.9,0.0,60,0.00,,SCT041,0.00,VWS V13.01,2013-09-17 21:34:00,
2013-09-17 17:39:00,66.5,51.6,30.48,SE,135,57.0,0.0,60,0.00,,SCT041,0.00,VWS V13.01,2013-09-17 21:39:00,
2013-09-17 17:44:00,66.3,51.6,30.48,WSW,248,57.0,0.0,59,0.00,,CLR,0.00,VWS V13.01,2013-09-17 21:44:00,
2013-09-17 17:49:00,66.3,51.7,30.48,SE,135,2.2,0.0,59,0.00,,CLR,0.00,VWS V13.01,2013-09-17 21:49:00,
2013-09-17 17:54:00,66.0,52.2,30.48,ENE,68,3.3,0.0,60,0.00,,CLR,0.00,VWS V13.01,2013-09-17 21:54:00,
2013-09-17 17:59:00,66.0,51.5,30.48,SSE,158,0.2,0.0,61,0.00,,CLR,0.00,VWS V13.01,2013-09-17 21:59:00,
2013-09-17 18:04:00,65.8,51.2,30.48,SW,225,2.9,0.0,60,0.00,,CLR,0.00,VWS V13.01,2013-09-17 22:04:00,
2013-09-17 18:09:00,65.4,51.5,30.48,SE,135,2.9,0.0,60,0.00,,CLR,0.00,VWS V13.01,2013-09-17 22:09:00,
2013-09-17 18:14:00,65.3,51.5,30.47,SSE,158,2.9,0.0,61,0.00,,CLR,0.00,VWS V13.01,2013-09-17 22:14:00,
2013-09-17 18:19:00,65.3,52.0,30.48,ESE,112,2.9,0.0,62,0.00,,CLR,0.00,VWS V13.01,2013-09-17 22:19:00,
2013-09-17 18:24:00,65.1,51.8,30.47,SE,135,0.4,0.0,62,0.00,,CLR,0.00,VWS V13.01,2013-09-17 22:24:00,
2013-09-17 18:29:00,65.1,52.0,30.48,ESE,112,0.6,0.0,63,0.00,,CLR,0.00,VWS V13.01,2013-09-17 22:29:00,
2013-09-17 18:34:00,64.5,52.0,30.47,SSE,158,0.6,0.0,63,0.00,,CLR,0.00,VWS V13.01,2013-09-17 22:34:00,
2013-09-17 18:39:00,64.2,51.4,30.47,SSE,158,0.6,0.0,63,0.00,,CLR,0.00,VWS V13.01,2013-09-17 22:39:00,
2013-09-17 18:44:00,64.2,51.6,30.47,SSE,158,0.6,0.0,63,0.00,,CLR,0.00,VWS V13.01,2013-09-17 22:44:00,
2013-09-17 18:49:00,63.8,51.2,30.47,SE,135,0.6,0.0,64,0.00,,CLR,0.00,VWS V13.01,2013-09-17 22:49:00,
2013-09-17 18:54:00,63.6,50.9,30.47,SE,135,0.6,0.0,64,0.00,,CLR,0.00,VWS V13.01,2013-09-17 22:54:00,
2013-09-17 18:59:00,63.3,50.8,30.48,SE,135,0.6,0.0,64,0.00,,CLR,0.00,VWS V13.01,2013-09-17 22:59:00,
2013-09-17 19:04:00,62.7,50.3,30.47,SE,135,0.6,0.0,65,0.00,,CLR,0.00,VWS V13.01,2013-09-17 23:04:00,
2013-09-17 19:09:00,62.2,50.2,30.47,SE,135,0.6,0.0,65,0.00,,CLR,0.00,VWS V13.01,2013-09-17 23:09:00,
2013-09-17 19:14:00,61.5,50.1,30.47,SE,135,0.6,0.0,66,0.00,,CLR,0.00,VWS V13.01,2013-09-17 23:14:00,
2013-09-17 19:19:00,60.9,50.0,30.47,SE,135,0.6,0.0,67,0.00,,CLR,0.00,VWS V13.01,2013-09-17 23:19:00,
2013-09-17 19:24:00,60.6,49.4,30.47,SE,135,0.6,0.0,68,0.00,,CLR,0.00,VWS V13.01,2013-09-17 23:24:00,
2013-09-17 19:29:00,60.6,49.3,30.47,SE,135,0.6,0.0,68,0.00,,CLR,0.00,VWS V13.01,2013-09-17 23:29:00,
2013-09-17 19:34:00,60.6,49.0,30.48,SE,135,0.6,0.0,68,0.00,,CLR,0.00,VWS V13.01,2013-09-17 23:34:00,
2013-09-17 19:39:00,59.1,48.7,30.48,SE,135,0.6,0.0,69,0.00,,CLR,0.00,VWS V13.01,2013-09-17 23:39:00,
2013-09-17 19:44:00,58.2,49.0,30.48,SE,135,0.6,0.0,70,0.00,,SCT039,0.00,VWS V13.01,2013-09-17 23:44:00,
2013-09-17 19:49:00,58.2,48.6,30.48,SE,135,0.6,0.0,70,0.00,,SCT039,0.00,VWS V13.01,2013-09-17 23:49:00,
2013-09-17 19:54:00,57.5,48.6,30.48,SE,135,0.6,0.0,72,0.00,,SCT039,0.00,VWS V13.01,2013-09-17 23:54:00,
2013-09-17 19:59:00,57.5,48.4,30.48,SE,135,0.6,0.0,72,0.00,,SCT039,0.00,VWS V13.01,2013-09-17 23:59:00,
2013-09-17 20:04:00,57.0,48.2,30.48,SE,135,0.6,0.0,72,0.00,,CLR,0.00,VWS V13.01,2013-09-18 00:04:00,
2013-09-17 20:09:00,56.4,48.2,30.48,SE,135,0.6,0.0,73,0.00,,CLR,0.00,VWS V13.01,2013-09-18 00:09:00,
2013-09-17 20:14:00,56.4,48.1,30.48,SE,135,0.6,0.0,74,0.00,,CLR,0.00,VWS V13.01,2013-09-18 00:14:00,
2013-09-17 20:19:00,56.3,47.9,30.48,SE,135,0.6,0.0,74,0.00,,CLR,0.00,VWS V13.01,2013-09-18 00:19:00,
2013-09-17 20:24:00,55.9,47.9,30.48,SE,135,0.6,0.0,74,0.00,,CLR,0.00,VWS V13.01,2013-09-18 00:24:00,
2013-09-17 20:29:00,55.7,47.7,30.48,North,0,0.6,0.0,75,0.00,,CLR,0.00,VWS V13.01,2013-09-18 00:29:00,
2013-09-17 20:34:00,55.5,47.4,30.48,SE,135,0.6,0.0,75,0.00,,CLR,0.00,VWS V13.01,2013-09-18 00:34:00,
2013-09-17 20:39:00,55.2,47.8,30.48,SE,135,0.6,0.0,75,0.00,,CLR,0.00,VWS V13.01,2013-09-18 00:39:00,
2013-09-17 20:44:00,55.2,47.9,30.49,SE,135,0.6,0.0,76,0.00,,SCT039,0.00,VWS V13.01,2013-09-18 00:44:00,
2013-09-17 20:49:00,55.0,47.5,30.49,SE,135,0.6,0.0,77,0.00,,SCT039,0.00,VWS V13.01,2013-09-18 00:49:00,
2013-09-17 20:54:00,54.6,47.5,30.48,SE,135,0.6,0.0,77,0.00,,SCT039,0.00,VWS V13.01,2013-09-18 00:54:00,
2013-09-17 20:59:00,54.6,47.2,30.48,SE,135,0.6,0.0,77,0.00,,SCT039,0.00,VWS V13.01,2013-09-18 00:59:00,
2013-09-17 21:04:00,54.3,47.4,30.49,SE,135,0.6,0.0,77,0.00,,CLR,0.00,VWS V13.01,2013-09-18 01:04:00,
2013-09-17 21:09:00,53.9,47.4,30.49,SE,135,0.6,0.0,78,0.00,,CLR,0.00,VWS V13.01,2013-09-18 01:09:00,
2013-09-17 21:14:00,53.9,47.0,30.49,SE,135,0.6,0.0,78,0.00,,CLR,0.00,VWS V13.01,2013-09-18 01:14:00,
2013-09-17 21:19:00,53.7,47.3,30.49,SE,135,0.6,0.0,78,0.00,,CLR,0.00,VWS V13.01,2013-09-18 01:19:00,
2013-09-17 21:24:00,53.7,47.3,30.49,SE,135,0.6,0.0,79,0.00,,CLR,0.00,VWS V13.01,2013-09-18 01:24:00,
2013-09-17 21:29:00,53.7,47.7,30.49,SE,135,0.6,0.0,79,0.00,,CLR,0.00,VWS V13.01,2013-09-18 01:29:00,
2013-09-17 21:34:00,53.7,47.7,30.49,SE,135,0.6,0.0,80,0.00,,CLR,0.00,VWS V13.01,2013-09-18 01:34:00,
2013-09-17 21:39:00,53.7,47.7,30.49,SE,135,0.6,0.0,80,0.00,,CLR,0.00,VWS V13.01,2013-09-18 01:39:00,
2013-09-17 21:44:00,53.7,47.7,30.49,SE,135,0.6,0.0,80,0.00,,CLR,0.00,VWS V13.01,2013-09-18 01:44:00,
2013-09-17 21:49:00,53.7,47.7,30.49,SE,135,0.6,0.0,80,0.00,,CLR,0.00,VWS V13.01,2013-09-18 01:49:00,
2013-09-17 21:54:00,53.7,47.7,30.50,SE,135,0.6,0.0,80,0.00,,CLR,0.00,VWS V13.01,2013-09-18 01:54:00,
2013-09-17 21:59:00,53.7,47.9,30.50,SE,135,0.6,0.0,80,0.00,,CLR,0.00,VWS V13.01,2013-09-18 01:59:00,
2013-09-17 22:04:00,53.6,47.7,30.49,SE,135,0.6,0.0,81,0.00,,CLR,0.00,VWS V13.01,2013-09-18 02:04:00,
2013-09-17 22:09:00,53.4,47.7,30.49,SE,135,0.6,0.0,81,0.00,,CLR,0.00,VWS V13.01,2013-09-18 02:09:00,
2013-09-17 22:14:00,53.2,47.7,30.49,SE,135,0.6,0.0,81,0.00,,CLR,0.00,VWS V13.01,2013-09-18 02:14:00,
2013-09-17 22:19:00,53.2,47.5,30.49,SE,135,0.6,0.0,81,0.00,,CLR,0.00,VWS V13.01,2013-09-18 02:19:00,
2013-09-17 22:24:00,53.2,47.5,30.49,SE,135,0.6,0.0,81,0.00,,CLR,0.00,VWS V13.01,2013-09-18 02:24:00,
2013-09-17 22:29:00,52.8,47.4,30.50,SE,135,0.6,0.0,82,0.00,,CLR,0.00,VWS V13.01,2013-09-18 02:29:00,
2013-09-17 22:34:00,52.7,47.2,30.49,SE,135,0.6,0.0,82,0.00,,CLR,0.00,VWS V13.01,2013-09-18 02:34:00,
2013-09-17 22:39:00,52.5,47.0,30.50,SE,135,0.6,0.0,82,0.00,,CLR,0.00,VWS V13.01,2013-09-18 02:39:00,
2013-09-17 22:44:00,52.3,47.0,30.50,SE,135,0.6,0.0,82,0.00,,CLR,0.00,VWS V13.01,2013-09-18 02:44:00,
2013-09-17 22:49:00,52.1,46.8,30.49,SE,135,0.6,0.0,82,0.00,,CLR,0.00,VWS V13.01,2013-09-18 02:49:00,
2013-09-17 22:54:00,52.1,46.9,30.49,SE,135,0.6,0.0,82,0.00,,CLR,0.00,VWS V13.01,2013-09-18 02:54:00,
2013-09-17 22:59:00,51.9,46.9,30.50,SE,135,57.0,0.0,83,0.00,,CLR,0.00,VWS V13.01,2013-09-18 02:59:00,
2013-09-17 23:04:00,51.8,46.8,30.50,SE,135,57.0,0.0,83,0.00,,CLR,0.00,VWS V13.01,2013-09-18 03:04:00,
2013-09-17 23:09:00,51.6,46.6,30.50,SE,135,57.0,0.0,83,0.00,,CLR,0.00,VWS V13.01,2013-09-18 03:09:00,
2013-09-17 23:14:00,51.6,46.6,30.50,SE,135,57.0,0.0,83,0.00,,CLR,0.00,VWS V13.01,2013-09-18 03:14:00,
2013-09-17 23:19:00,51.6,46.4,30.50,SE,135,57.0,0.0,83,0.00,,CLR,0.00,VWS V13.01,2013-09-18 03:19:00,
2013-09-17 23:24:00,51.6,46.4,30.50,SE,135,57.0,0.0,83,0.00,,CLR,0.00,VWS V13.01,2013-09-18 03:24:00,
2013-09-17 23:29:00,51.4,46.2,30.50,SE,135,57.0,0.0,83,0.00,,CLR,0.00,VWS V13.01,2013-09-18 03:29:00,
2013-09-17 23:34:00,51.2,46.0,30.50,SE,135,57.0,0.0,83,0.00,,CLR,0.00,VWS V13.01,2013-09-18 03:34:00,
2013-09-17 23:39:00,51.0,46.3,30.50,SE,135,57.0,0.0,83,0.00,,CLR,0.00,VWS V13.01,2013-09-18 03:39:00,
2013-09-17 23:44:00,51.0,46.2,30.50,SE,135,57.0,0.0,84,0.00,,CLR,0.00,VWS V13.01,2013-09-18 03:44:00,
2013-09-17 23:49:00,51.0,46.2,30.50,SE,135,57.0,0.0,84,0.00,,CLR,0.00,VWS V13.01,2013-09-18 03:49:00,
2013-09-17 23:54:00,50.9,46.0,30.50,SE,135,57.0,0.0,84,0.00,,CLR,0.00,VWS V13.01,2013-09-18 03:54:00,
2013-09-17 23:59:00,50.7,46.0,30.50,SE,135,57.0,0.0,84,0.00,,CLR,0.00,VWS V13.01,2013-09-18 03:59:00,